COSMOS 249 DEB, 3695

Orbit data source: Space-Track

COSMOS 249 DEB, 3695 is space debris in LEO originally from a launch on Sun, 20 Oct 1968 UTC launched from the Tyuratam Missile And Space Complex (TTMTR). Debris objects in space refer to the collection of defunct objects orbiting the Earth. Examples of debris include non-operational satellites, rocket bodies, and fragments generated from explosions, collisions, or faulty payload assembly.

Loading next visibility...
COSMOS 249 DEB details
Identifier
3695, 1968-091AL
Orbit
LEO
Last TLE update21 hours ago
Origin
Flag of CISPKO (CIS)
ManufacturerUnknown
MissionSpacecraft
Bus & MotorUnknown
MassUnknown
Launch date (UTC)
1968-10-20 (56 years ago)
Launch vehicleUnknown
Launch site
Tyuratam Missile And Space Complex (TTMTR)
Object type
Payload
Rocket body
Debris
Shape & HBRUnknown
Radar Cross SectionSmall (<0.1 m²)

Expand to show TLE details & history

TLE from 21 hours ago
0 COSMOS 249 DEB
1 03695U 68091AL  24360.60972590  .00007061  00000-0  69838-2 0  9990
2 03695  62.2321 165.3572 0690570 114.1169 253.3610 13.04482632601842
Epoch: 2024-12-25T14:38Z
Definitive object data (Epoch: 2024-12-25T14:38:00.317Z)
Latitude-0.00008°
Longitude-148.74518°
Altitude1,429.294 km
Speed7.061 km/s
True Right ascension11h 01m 25s
True Declination0° 00' 00"
Sunlit
Object was in daylight at TLE epoch
Visualization TLE readout
Latitude55.83848°
Longitude-100.38658°
Altitude864.743 km
Speed7.613 km/s
Apparent Right ascension19h 04m 16s
Apparent Declination24° 13' 21"
Sunlit
Object is in daylight
Visualization observer readout
Local Sidereal Time10:34:03
Azimuth47.121° ENE
Elevation-9.385°
Doppler factor1
Orbital elements
Apogee altitude1,769.899 km
Perigee altitude717.235 km
Semi-major axis7,621.704 km
Eccentricity0.069057
Inclination62.2321°
RAAN165.3572°
Arg. of periapsis114.1169°
True anomaly245.98243°
Mean anomaly253.361°
Eccentric anomaly249.65125°
Mean motion3.26186 °/min
BSTAR0.0069838
Orbital period110.37 mins
Loading maneuver chart data...

COSMOS 249 DEB Visibility forecast

Observer location: undefined°, undefined

Span
Click to sort rows by Start time (UTC) header in descending order
Start Az.
Max El. time (UTC)
Max El. Az.
Max El.
End time (UTC)
End Az.
13 mins2024-12-26 12:48:44.979Z204.179° SW2024-12-26 12:55:44.979Z148.332° SSE42.814°2024-12-26 13:01:44.979Z41.083° NE
8 mins2024-12-26 14:46:44.979Z274.594° WNW2024-12-26 14:50:44.979Z321.333° NNW22.235°2024-12-26 14:54:44.979Z10.269° NNE
7 mins2024-12-26 20:36:44.979Z350.06° N2024-12-26 20:39:44.979Z39.162° NE27.074°2024-12-26 20:43:44.979Z102.752° ESE
7 mins2024-12-26 22:30:44.979Z295.907° NW2024-12-26 22:33:44.979Z244.792° WSW28.356°2024-12-26 22:37:44.979Z184.467° SSW
4 mins2024-12-27 10:55:44.979Z128.653° SE2024-12-27 10:57:44.979Z111.663° ESE12.783°2024-12-27 10:59:44.979Z93.456° ESE
|